Location: Caltech
(34.1382°N, 118.1253°W)
Time: 22:20:04
(UTC-07:00)

SL-08 RB Rocket - Visible Passes

Search period start: 26 April 2017 00:00
Search period end: 06 May 2017 00:00
Orbit: 647 x 686 km, 98.0° (Epoch: 25 April)

Date Brightness Start Highest point End Pass type
(mag) Time Alt. Az. Time Alt. Az. Time Alt. Az.
26 Apr 5.6 21:13:40 16° ENE 21:13:40 16° ENE 21:15:56 10° NNE visible
26 Apr 5.7 22:51:48 26° NW 22:51:48 26° NW 22:54:08 10° NNW visible
27 Apr 4.9 21:45:36 31° NE 21:45:36 31° NE 21:48:40 10° N visible
27 Apr 6.5 23:23:44 14° WNW 23:23:44 14° WNW 23:24:45 10° NW visible
28 Apr 4.7 22:17:33 43° N 22:17:33 43° N 22:20:38 10° N visible
29 Apr 5.6 21:11:21 15° ENE 21:11:21 15° ENE 21:13:43 10° NNE visible
29 Apr 5.5 22:49:29 29° NW 22:49:29 29° NW 22:52:04 10° NNW visible
30 Apr 4.8 21:43:17 31° NE 21:43:17 31° NE 21:46:31 10° N visible
30 Apr 6.3 23:21:25 15° WNW 23:21:25 15° WNW 23:22:45 10° NW visible
01 May 4.4 22:15:13 48° N 22:15:13 48° N 22:18:32 10° N visible
02 May 5.6 21:09:01 15° ENE 21:09:01 15° ENE 21:11:29 10° NE visible
02 May 5.3 22:47:09 33° NW 22:47:09 33° NW 22:50:00 10° NNW visible
03 May 4.8 21:40:58 30° ENE 21:40:58 30° ENE 21:44:23 10° N visible
03 May 6.2 23:19:05 16° WNW 23:19:05 16° WNW 23:20:44 10° NW visible
04 May 4.2 22:12:54 53° N 22:12:54 53° N 22:16:26 10° N visible
05 May 5.6 21:06:42 14° ENE 21:06:57 14° ENE 21:09:13 10° NE visible
05 May 5.0 22:44:50 36° NW 22:44:50 36° NW 22:47:55 10° NNW visible
